RH
51 82 83 66 58 47 65 68 80 97 78 80 61 58 43 36 39 28 23 10 5 6 4 4 2 2 2 2 1 1 1 2 2 3 3 4 5 6 8 12 18 23 18 13 12 12 18
56 88 85 76 62 51 49 55 96 95 88 88 66 62 49 42 44 34 30 12 6 7 6 4 3 2 2 2 1 1 1 2 2 3 4 4 5 6 8 10 11 18 20 16 16 17 18
46 64 83 67 73 60 53 56 99 96 97 86 67 69 56 44 43 40 30 15 6 6 6 4 3 2 2 2 1 1 1 2 2 3 4 4 5 5 8 11 12 18 22 18 20 19 19
66 53 65 55 67 53 55 43 87 97 100 93 78 74 57 47 53 46 32 17 7 6 7 6 3 2 2 2 2 1 1 2 2 3 4 4 4 6 7 11 13 17 30 23 21 20 12
77 75 75 64 57 48 41 62 86 100 100 100 84 82 61 53 57 49 36 27 8 6 8 6 3 2 2 2 2 1 1 2 3 4 5 5 5 6 8 12 16 23 28 26 20 15 16
74 89 69 50 55 48 42 84 98 100 100 100 85 84 71 55 58 52 33 24 10 6 10 8 4 2 2 2 2 2 1 2 3 4 5 7 6 7 9 12 12 14 24 26 20 20 15
78 65 50 50 62 50 47 66 100 98 100 97 90 88 79 63 64 54 38 33 13 7 10 8 4 2 2 2 2 2 1 2 3 4 5 8 6 8 11 12 14 23 32 23 28 20 16
43 41 44 42 48 62 53 64 100 96 100 98 94 91 83 75 72 55 41 36 21 7 10 7 4 3 2 3 2 2 2 2 3 4 4 8 9 8 9 10 12 13 15 21 24 22 16
40 50 59 50 68 63 56 87 100 100 100 100 98 94 87 82 73 65 46 42 32 12 9 8 6 3 3 3 2 2 2 2 4 5 8 10 11 11 12 13 13 14 22 30 27 22 19
60 66 72 77 76 60 72 98 100 100 100 100 98 96 86 80 83 68 48 51 44 16 8 9 6 4 3 3 3 2 2 3 4 5 6 9 14 13 12 13 15 17 19 21 24 21 20
66 91 82 76 77 68 84 100 100 100 100 100 100 99 92 80 80 75 57 50 50 25 9 8 6 4 4 3 4 3 3 3 3 5 6 8 15 16 15 14 15 15 17 22 28 29 25
86 86 98 79 77 71 88 100 100 100 99 100 100 100 94 79 82 78 58 52 57 36 16 9 6 5 5 4 4 4 3 4 5 6 6 10 14 16 15 15 15 15 16 17 20 22 22
77 79 70 81 75 78 95 100 100 100 100 100 100 100 91 82 88 77 61 56 61 43 19 11 7 6 6 5 5 6 4 3 5 7 7 8 13 16 17 17 19 18 16 15 15 19 26
60 79 92 90 91 78 95 100 100 100 100 100 100 100 91 84 84 78 67 58 66 53 25 13 8 5 8 7 6 7 8 5 5 8 11 9 13 17 18 17 17 16 17 17 16 16 20
55 74 78 77 100 84 91 100 100 100 100 100 100 100 96 80 88 84 72 60 73 48 27 18 8 6 6 8 6 6 9 9 5 6 13 17 17 20 22 20 18 18 18 19 22 22 21
38 70 83 74 80 89 94 100 100 100 100 100 100 100 96 78 91 90 76 74 74 46 29 19 10 7 6 8 7 6 7 11 8 7 8 17 25 24 23 23 22 21 20 22 21 24 23
73 75 74 64 73 100 100 100 100 100 100 100 100 100 98 80 90 83 84 79 74 52 39 21 11 11 6 7 8 6 7 9 12 10 12 10 14 30 39 37 33 29 25 24 27 31 31
61 48 56 70 76 97 100 99 100 100 100 100 100 99 89 91 89 80 86 84 78 51 42 28 14 10 7 6 6 6 7 7 11 12 12 14 15 17 18 27 34 36 34 31 27 27 26
52 60 55 58 93 98 100 98 100 100 100 100 100 95 85 97 89 86 81 88 79 51 43 40 19 9 10 8 7 6 6 8 9 11 13 13 16 17 20 27 34 41 42 41 35 33 33
58 64 59 62 93 100 100 100 100 100 100 100 100 95 95 93 91 85 83 97 69 49 42 36 34 12 10 8 8 8 6 7 9 10 12 15 16 19 21 26 29 33 39 42 41 44 44
47 54 52 71 100 100 100 100 100 97 97 100 100 99 92 97 94 84 89 85 64 48 43 44 43 28 14 8 9 8 7 6 8 10 11 15 17 19 20 21 27 32 37 35 45 40 47
71 53 78 80 94 100 100 100 92 100 100 100 100 99 93 96 90 91 95 81 66 47 45 45 42 34 16 14 10 9 8 6 7 9 11 13 17 19 21 27 29 30 32 35 42 41 43
63 69 75 87 100 100 100 100 100 100 100 100 100 94 98 92 100 98 88 85 70 49 37 42 49 50 44 17 15 12 12 11 8 8 9 11 12 21 22 23 26 31 31 33 35 37 35
68 70 67 73 100 100 100 100 100 100 100 100 100 95 100 94 99 98 92 84 74 49 38 41 50 57 56 28 16 12 11 11 12 9 8 10 11 13 17 21 23 26 26 32 41 52 51
61 50 41 73 100 100 100 100 100 100 100 100 99 97 100 100 96 89 88 80 72 51 39 35 50 56 67 59 30 23 17 14 12 11 9 9 11 12 12 17 23 31 30 30 30 33 36
73 78 65 65 100 100 100 100 100 100 100 100 100 100 100 100 99 92 85 80 71 52 40 40 43 54 62 80 37 34 22 21 20 14 13 11 11 13 16 14 16 31 28 42 50 54 61
58 50 83 83 100 100 100 100 100 100 100 100 100 100 99 96 100 85 85 82 73 56 42 38 40 48 57 66 76 51 35 36 23 20 16 13 11 12 13 16 19 24 25 32 33 63 55
59 58 65 87 100 100 100 100 100 100 100 100 100 96 93 99 100 90 79 82 78 60 45 40 43 46 48 56 69 74 53 38 38 26 21 14 12 11 11 13 16 22 24 22 29 40 43
52 46 60 83 100 100 100 100 100 100 100 100 100 100 99 98 100 89 79 83 84 69 55 41 42 55 44 51 61 74 81 63 51 32 21 18 18 14 12 13 15 21 25 26 27 38 50
Wind_Speed
63 67 68 69 77 82 80 82 82 78 82 83 84 86 90 92 91 94 93 86 85 88 89 91 79 61 49 41 31 27 30 42 55 69 76 78 79 82 85 91 98 102 99 100 97 99 101
68 74 68 72 78 83 85 79 80 79 81 82 82 85 88 91 93 95 96 86 85 89 92 94 82 62 46 40 28 22 26 38 51 69 77 79 82 82 86 92 99 95 99 97 97 98 99
66 72 74 79 76 84 86 77 77 77 78 81 81 85 87 90 92 95 97 88 86 90 93 92 82 60 48 37 26 19 23 35 43 62 74 79 83 80 83 87 94 96 100 97 101 97 99
72 74 77 78 87 85 81 84 75 75 76 80 80 83 86 88 93 94 96 88 87 89 95 97 80 60 51 39 26 20 19 30 43 52 68 78 80 80 80 86 86 91 99 98 102 107 99
74 77 84 86 87 92 90 78 73 75 75 77 78 82 84 86 91 94 96 94 83 87 93 95 80 60 51 44 31 21 16 25 41 58 67 77 78 78 78 82 87 97 97 101 106 104 98
74 85 86 89 88 83 85 72 72 73 72 76 75 80 82 84 90 94 93 89 84 87 92 94 76 61 50 42 31 22 13 23 42 50 60 72 76 76 80 86 85 85 96 105 99 101 102
97 100 92 93 82 87 73 69 72 70 69 72 73 78 80 82 88 91 92 91 83 87 93 88 77 62 47 40 31 18 9 23 39 44 52 63 70 73 76 78 82 87 99 99 97 98 98
105 99 95 94 88 76 68 64 69 68 68 69 72 75 78 81 86 88 89 90 84 83 91 90 78 62 46 39 30 17 8 18 32 42 48 56 66 70 73 80 79 84 87 90 96 95 92
102 97 87 80 73 70 65 61 65 68 65 65 69 72 76 79 83 88 87 88 85 84 87 90 74 63 47 39 30 17 4 12 23 31 42 54 61 64 67 71 74 76 81 88 93 92 90
95 88 78 77 72 64 62 58 63 66 61 63 66 70 74 76 80 85 86 87 87 83 85 90 73 60 48 38 30 17 5 15 22 31 41 49 55 62 66 69 74 76 81 83 87 91 90
85 82 76 73 67 62 59 55 59 62 58 60 63 67 71 74 76 82 84 83 87 84 86 88 76 60 51 38 31 21 6 7 16 26 32 41 51 57 62 66 70 72 75 79 82 84 86
87 78 73 68 63 61 57 53 57 58 55 56 61 65 68 70 74 78 80 80 84 85 87 88 77 66 56 42 32 25 7 7 10 17 28 42 48 55 61 62 64 71 74 77 79 82 82
83 80 72 69 58 59 55 51 56 56 53 53 57 61 64 67 71 75 77 76 82 86 84 86 80 68 57 46 32 24 12 4 12 15 25 39 46 52 56 59 60 64 69 71 73 74 77
84 74 72 65 59 58 53 49 56 53 51 49 55 58 60 64 66 70 72 72 77 83 84 83 78 68 61 51 36 22 16 6 11 19 17 28 38 44 51 56 59 61 63 65 67 69 72
82 74 64 59 58 58 51 49 53 51 48 46 52 55 58 60 62 67 69 69 76 83 80 79 79 66 61 56 39 22 14 10 12 21 24 25 33 40 46 52 55 56 58 58 61 66 72
81 72 60 53 55 57 49 48 52 48 46 45 49 52 54 56 59 62 65 66 73 80 80 77 71 68 62 59 49 26 14 5 8 16 25 33 30 33 39 46 52 56 57 59 60 64 70
83 72 55 47 53 53 48 48 48 44 43 43 46 49 51 53 55 58 62 61 67 75 81 76 69 67 61 58 53 31 15 8 4 15 20 31 38 39 37 40 45 50 54 57 60 62 64
84 69 54 49 53 51 47 46 46 42 42 42 45 45 48 51 50 55 57 58 65 71 76 78 68 65 57 55 52 40 18 9 8 10 20 26 34 34 39 42 44 49 54 57 59 60 62
83 68 56 47 52 49 47 45 43 42 42 40 42 42 45 48 47 53 53 53 62 66 72 75 71 66 61 52 54 47 29 12 9 11 14 21 27 34 37 40 40 42 47 52 55 59 62
75 70 56 45 48 48 47 44 42 42 38 39 39 40 43 45 45 49 50 50 54 62 66 71 74 66 64 51 51 51 39 20 10 12 13 15 24 26 34 39 45 47 48 50 54 57 62
72 69 47 46 46 47 47 44 41 39 34 34 36 38 42 42 43 46 46 46 50 56 62 69 72 70 65 57 52 51 46 31 14 11 14 15 20 25 31 35 40 49 52 55 57 63 59
70 58 49 47 46 48 46 43 40 39 38 33 35 36 40 40 40 43 45 44 48 52 57 65 73 73 64 62 58 48 48 40 26 11 12 17 19 23 28 34 38 41 49 53 56 58 59
64 61 49 47 47 47 46 43 40 40 33 31 32 35 37 37 39 41 43 42 48 50 51 60 69 76 77 64 58 53 46 45 35 23 13 14 19 24 28 32 37 40 44 47 52 55 56
74 62 52 49 46 49 46 41 41 36 33 31 31 31 34 34 36 38 42 39 45 47 49 54 62 71 77 73 64 58 49 44 40 31 22 15 17 23 27 27 29 35 36 40 45 49 53
55 51 49 48 47 44 44 40 41 36 32 30 29 29 32 33 35 36 39 38 43 45 48 49 57 68 79 83 75 66 59 52 43 37 27 22 20 21 24 26 26 28 31 32 35 37 39
63 56 52 47 48 47 41 39 38 34 33 30 28 29 32 31 36 37 38 35 40 44 46 51 52 63 72 79 79 79 66 55 52 42 36 26 21 23 25 25 26 30 29 30 32 30 37
63 57 51 48 52 49 45 41 40 37 34 31 28 29 31 29 34 37 37 34 40 44 46 49 52 58 66 72 81 79 75 65 59 53 39 32 27 23 24 26 28 32 34 34 32 32 38
69 59 51 48 49 48 44 41 39 38 32 30 29 28 29 29 35 37 37 32 40 44 46 48 53 57 62 69 76 81 81 76 65 57 43 36 31 29 26 25 28 32 35 36 35 36 37
60 56 52 47 49 49 45 41 40 37 32 31 30 29 29 28 33 37 33 33 40 44 46 48 52 58 61 65 75 78 81 78 73 64 54 36 37 33 29 28 30 33 36 37 35 36 38
Wind_Direction
307 311 315 318 321 326 325 326 325 324 325 326 331 332 332 334 336 338 340 347 348 351 350 351 345 337 329 325 309 278 249 230 222 215 214 214 212 210 209 209 213 215 214 218 218 216 213
304 308 313 315 320 323 324 324 321 322 323 325 329 330 332 334 335 336 342 346 349 352 350 351 347 339 332 328 315 282 248 227 221 215 213 212 211 210 207 208 214 213 215 215 218 216 216
299 302 307 310 316 321 322 322 319 321 322 324 328 329 332 334 336 339 340 347 349 354 353 350 348 342 336 335 323 294 248 227 217 214 213 211 211 209 206 208 211 210 213 213 216 218 217
293 298 303 307 309 315 318 319 316 319 320 323 327 329 331 333 335 339 340 344 351 355 357 351 348 345 340 340 333 311 253 227 214 214 214 211 210 207 206 208 209 210 212 211 214 219 216
288 296 301 304 305 309 312 313 312 316 318 321 325 326 331 332 334 339 342 344 350 354 359 351 350 348 344 343 343 322 261 227 208 208 208 209 209 207 204 207 206 208 210 213 215 218 216
286 292 296 301 305 307 310 308 310 313 315 319 325 325 330 331 334 337 341 342 351 355 359 354 352 352 347 346 344 328 266 212 206 207 204 208 208 204 202 206 208 210 212 215 217 216 220
288 291 292 297 300 305 306 306 305 310 314 319 323 325 329 331 332 337 341 342 352 353 360 357 353 354 351 352 348 343 278 202 207 202 203 206 208 203 202 205 207 206 213 216 216 218 220
284 286 291 294 296 299 300 303 303 307 311 318 320 324 327 330 332 337 341 342 350 354 1 0 354 354 355 356 355 354 297 201 206 203 201 202 207 205 205 207 208 212 215 216 217 218 220
280 284 288 291 293 295 299 298 299 302 309 317 319 323 326 329 332 336 341 342 349 354 0 2 356 356 358 0 3 358 334 172 190 190 192 200 204 203 204 206 209 211 212 215 219 219 218
278 281 283 288 290 290 291 294 295 299 307 315 317 321 324 328 331 336 339 342 347 353 1 0 360 359 3 4 9 5 55 170 189 196 196 195 199 202 204 205 207 211 214 216 218 220 219
277 276 280 284 288 286 287 290 292 297 307 313 314 319 323 327 332 336 340 343 345 355 358 0 3 4 5 7 11 17 69 166 182 197 195 191 198 201 204 206 208 211 215 216 218 220 221
269 274 275 281 283 282 282 286 289 296 306 311 313 317 321 326 331 335 339 345 345 354 355 359 3 7 7 9 11 16 12 140 160 180 190 194 198 202 204 206 209 211 215 217 219 222 221
268 270 272 275 278 279 278 281 286 293 303 309 312 315 320 326 332 335 340 345 346 349 354 357 3 7 12 11 8 15 9 165 156 175 192 194 198 202 204 206 209 214 217 219 221 223 223
264 266 265 271 272 274 274 277 282 290 300 309 309 314 318 325 333 335 341 344 344 346 355 357 2 9 11 15 11 7 7 299 180 163 176 199 201 203 206 208 212 214 217 219 220 222 223
262 264 264 265 264 267 268 273 279 287 295 305 306 313 317 326 333 336 342 343 343 344 350 358 1 12 13 10 13 2 1 344 218 191 173 187 200 204 207 210 213 215 217 217 219 222 223
258 263 262 262 259 261 265 268 276 283 292 301 304 310 315 325 332 336 341 343 342 344 348 356 2 1 11 12 10 7 349 343 235 219 204 186 193 205 211 213 213 214 215 218 220 222 224
250 253 255 259 255 256 260 264 271 280 290 296 301 307 314 326 331 336 340 343 343 345 345 355 6 5 9 8 9 7 359 323 238 223 211 207 198 200 207 211 215 217 219 220 220 224 226
244 249 253 251 250 252 256 261 267 277 286 292 298 305 313 324 331 335 341 341 343 344 348 351 6 6 8 11 8 10 2 326 274 240 222 212 214 214 212 209 210 215 216 220 223 227 229
239 241 248 242 243 246 250 256 264 273 280 289 295 302 314 323 330 335 341 341 342 344 347 353 3 6 6 8 12 10 6 344 289 264 248 229 223 219 217 214 214 215 218 221 224 227 228
233 238 240 238 240 243 246 251 260 269 276 283 291 301 312 321 329 335 342 342 343 344 347 352 356 9 7 13 11 12 8 360 310 265 249 247 238 234 222 220 218 219 219 221 223 225 228
230 231 233 233 236 238 243 249 255 265 269 278 289 299 309 320 328 333 340 337 343 345 350 355 356 7 10 14 19 12 12 6 346 291 257 243 247 244 241 234 226 222 224 225 223 227 228
222 227 225 231 231 234 238 247 249 260 268 274 285 296 308 318 328 332 336 336 340 347 353 357 358 357 7 14 16 21 14 8 357 326 272 259 245 244 241 238 238 233 229 231 233 236 235
215 222 221 228 228 232 235 242 251 257 264 273 282 294 307 318 323 329 332 334 339 345 349 1 4 3 2 9 15 16 15 10 359 343 313 271 254 245 242 241 240 241 241 240 239 241 243
210 212 220 223 225 227 234 241 247 251 257 266 277 295 302 316 317 323 328 333 335 344 350 3 5 8 359 5 10 16 21 19 8 353 330 296 263 250 248 246 245 244 246 247 248 247 247
208 221 222 221 221 225 228 234 240 247 253 263 276 292 298 310 312 320 324 331 336 341 350 0 7 12 7 4 3 12 13 19 15 6 347 325 290 268 258 254 247 248 247 244 244 246 247
203 207 219 221 215 220 223 230 240 246 253 262 272 284 291 304 308 317 321 326 334 340 348 357 8 12 13 8 3 2 11 16 17 6 357 342 310 279 270 262 256 253 250 245 244 245 245
203 206 210 216 213 214 217 227 237 240 247 258 266 278 286 300 305 312 317 324 332 338 347 354 1 10 14 12 7 2 1 5 11 11 359 345 335 303 283 263 255 253 253 247 241 236 245
197 202 204 214 213 214 216 221 231 239 245 254 264 273 282 297 301 307 312 321 329 336 345 350 0 6 7 9 7 6 359 0 5 7 6 353 342 325 305 281 265 256 254 255 250 248 249
201 202 201 209 212 212 212 218 226 236 244 251 262 269 279 292 299 304 313 319 326 332 342 349 356 1 5 7 8 5 7 3 357 358 1 357 352 332 316 295 279 266 260 260 258 257 256